• In Belarus
  • List of Countries
  • For 7 days
  • Water Temperature
  • Satellite Maps
  • Weather Map
  • Weather Widgets
  • user-avatar
    Login

    Hourly Weather Castelo Branco

    Today, 19 August, Sunday

    Time Temperature Precipitation Wind Pressure Humidity
    00:00 +25°C° 0 mm 2 mps 731 mmHg 27%
    01:00 +24°C° 0 mm 2 mps 731 mmHg 29%
    02:00 +24°C° 0 mm 2 mps 730 mmHg 31%
    03:00 +23°C° 0 mm 2 mps 730 mmHg 33%
    04:00 +23°C° 0 mm 2 mps 730 mmHg 36%
    05:00 +21°C° 0 mm 2 mps 731 mmHg 39%
    06:00 +21°C° 0 mm 3 mps 731 mmHg 41%
    07:00 +25°C° 0 mm 3 mps 731 mmHg 39%
    08:00 +27°C° 0 mm 3 mps 732 mmHg 38%
    09:00 +29°C° 0 mm 3 mps 732 mmHg 37%
    10:00 +31°C° 0 mm 3 mps 732 mmHg 33%
    11:00 +35°C° 0 mm 3 mps 732 mmHg 29%
    12:00 +37°C° 0 mm 2 mps 732 mmHg 25%
    13:00 +38°C° 0 mm 2 mps 731 mmHg 23%
    14:00 +39°C° 0 mm 2 mps 731 mmHg 21%
    15:00 +40°C° 0 mm 1 mps 731 mmHg 19%
    16:00 +39°C° 0 mm 2 mps 731 mmHg 20%
    17:00 +38°C° 0 mm 2 mps 730 mmHg 20%
    18:00 +37°C° 0 mm 2 mps 730 mmHg 21%
    19:00 +35°C° 0 mm 2 mps 730 mmHg 23%
    20:00 +32°C° 0 mm 2 mps 731 mmHg 26%
    21:00 +30°C° 0 mm 2 mps 731 mmHg 29%
    22:00 +29°C° 0 mm 2 mps 731 mmHg 29%
    23:00 +28°C° 0 mm 2 mps 731 mmHg 29%

    Tomorrow, 20 August, Monday

    Time Temperature Precipitation Wind Pressure Humidity
    00:00 +28°C° 0 mm 2 mps 731 mmHg 29%
    01:00 +27°C° 0 mm 2 mps 731 mmHg 31%
    02:00 +27°C° 0 mm 2 mps 730 mmHg 34%
    03:00 +26°C° 0 mm 2 mps 730 mmHg 36%
    04:00 +26°C° 0 mm 2 mps 731 mmHg 39%
    05:00 +25°C° 0 mm 2 mps 731 mmHg 41%
    06:00 +25°C° 0 mm 2 mps 731 mmHg 44%
    07:00 +27°C° 0 mm 3 mps 731 mmHg 41%
    08:00 +29°C° 0 mm 3 mps 732 mmHg 37%
    09:00 +31°C° 0 mm 3 mps 732 mmHg 34%
    10:00 +34°C° 0 mm 3 mps 732 mmHg 31%
    11:00 +36°C° 0 mm 3 mps 732 mmHg 28%
    12:00 +38°C° 0 mm 3 mps 732 mmHg 25%
    13:00 +38°C° 0 mm 2 mps 731 mmHg 23%
    14:00 +39°C° 0 mm 2 mps 731 mmHg 22%
    15:00 +40°C° 0 mm 1 mps 731 mmHg 21%
    16:00 +37°C° 0 mm 1 mps 730 mmHg 22%
    17:00 +36°C° 0 mm 1 mps 730 mmHg 24%
    18:00 +35°C° 0 mm 1 mps 730 mmHg 25%
    19:00 +33°C° 0 mm 1 mps 730 mmHg 28%
    20:00 +32°C° 0 mm 1 mps 730 mmHg 31%
    21:00 +30°C° 0 mm 1 mps 730 mmHg 34%
    22:00 +29°C° 0 mm 1 mps 730 mmHg 35%
    23:00 +28°C° 0 mm 1 mps 730 mmHg 36%

    Day after tomorrow, 21 August, Tuesday

    Time Temperature Precipitation Wind Pressure Humidity
    00:00 +27°C° 0 mm 1 mps 730 mmHg 37%
    01:00 +27°C° 0 mm 1 mps 730 mmHg 37%
    02:00 +27°C° 0 mm 1 mps 730 mmHg 37%
    03:00 +26°C° 0 mm 1 mps 730 mmHg 37%
    04:00 +26°C° 0 mm 1 mps 730 mmHg 37%
    05:00 +26°C° 0 mm 1 mps 730 mmHg 37%
    06:00 +25°C° 0 mm 1 mps 730 mmHg 38%
    07:00 +27°C° 0 mm 2 mps 730 mmHg 35%
    08:00 +29°C° 0 mm 2 mps 731 mmHg 31%
    09:00 +31°C° 0 mm 2 mps 731 mmHg 28%
    10:00 +34°C° 0 mm 2 mps 731 mmHg 25%
    11:00 +36°C° 0 mm 2 mps 731 mmHg 22%
    12:00 +38°C° 0 mm 2 mps 731 mmHg 19%
    13:00 +39°C° 0 mm 1 mps 730 mmHg 18%
    14:00 +40°C° 0 mm 1 mps 730 mmHg 17%
    15:00 +40°C° 0 mm 1 mps 730 mmHg 16%
    16:00 +39°C° 0 mm 1 mps 729 mmHg 18%
    17:00 +36°C° 0 mm 1 mps 729 mmHg 21%
    18:00 +35°C° 0 mm 1 mps 729 mmHg 23%
    19:00 +33°C° 0 mm 1 mps 729 mmHg 26%
    20:00 +31°C° 0 mm 1 mps 729 mmHg 29%
    21:00 +30°C° 0 mm 1 mps 730 mmHg 32%
    22:00 +29°C° 0 mm 1 mps 729 mmHg 34%
    23:00 +28°C° 0 mm 1 mps 729 mmHg 35%

    22 August, Wednesday

    Time Temperature Precipitation Wind Pressure Humidity
    00:00 +28°C° 0 mm 1 mps 729 mmHg 37%
    01:00 +27°C° 0 mm 1 mps 729 mmHg 37%
    02:00 +27°C° 0 mm 1 mps 729 mmHg 38%
    03:00 +26°C° 0 mm 1 mps 729 mmHg 39%
    04:00 +26°C° 0 mm 1 mps 729 mmHg 38%
    05:00 +26°C° 0 mm 1 mps 729 mmHg 38%
    06:00 +26°C° 0 mm 1 mps 729 mmHg 38%
    07:00 +28°C° 0 mm 1 mps 730 mmHg 35%
    08:00 +30°C° 0 mm 1 mps 730 mmHg 31%
    09:00 +32°C° 0 mm 1 mps 730 mmHg 27%
    10:00 +34°C° 0 mm 1 mps 731 mmHg 25%
    11:00 +35°C° 0 mm 1 mps 731 mmHg 22%
    12:00 +38°C° 0 mm 2 mps 731 mmHg 20%
    13:00 +38°C° 0 mm 2 mps 730 mmHg 20%
    14:00 +38°C° 0 mm 2 mps 730 mmHg 20%
    15:00 +38°C° 0 mm 2 mps 730 mmHg 20%
    16:00 +37°C° 0.1 mm 2 mps 730 mmHg 22%
    17:00 +35°C° 0.1 mm 1 mps 730 mmHg 24%
    18:00 +34°C° 0.1 mm 1 mps 729 mmHg 25%
    19:00 +32°C° 0 mm 1 mps 730 mmHg 30%
    20:00 +30°C° 0 mm 1 mps 730 mmHg 34%
    21:00 +28°C° 0 mm 1 mps 730 mmHg 38%
    22:00 +28°C° 0 mm 1 mps 730 mmHg 40%
    23:00 +27°C° 0 mm 1 mps 730 mmHg 41%

    23 August, Thursday

    Time Temperature Precipitation Wind Pressure Humidity
    00:00 +27°C° 0 mm 1 mps 730 mmHg 42%
    01:00 +26°C° 0 mm 1 mps 730 mmHg 43%
    02:00 +26°C° 0 mm 1 mps 730 mmHg 44%
    03:00 +26°C° 0 mm 1 mps 729 mmHg 45%
    04:00 +25°C° 0 mm 1 mps 729 mmHg 45%
    05:00 +25°C° 0 mm 1 mps 729 mmHg 46%
    06:00 +25°C° 0 mm 1 mps 729 mmHg 47%
    07:00 +27°C° 0 mm 1 mps 730 mmHg 41%
    08:00 +30°C° 0 mm 1 mps 730 mmHg 35%
    09:00 +33°C° 0 mm 1 mps 731 mmHg 29%
    10:00 +35°C° 0 mm 1 mps 731 mmHg 25%
    11:00 +37°C° 0 mm 1 mps 731 mmHg 22%
    12:00 +41°C° 0 mm 1 mps 731 mmHg 18%
    13:00 +40°C° 0 mm 1 mps 730 mmHg 19%
    14:00 +39°C° 0 mm 1 mps 730 mmHg 19%
    15:00 +38°C° 0 mm 2 mps 730 mmHg 20%
    16:00 +37°C° 0 mm 2 mps 730 mmHg 22%
    17:00 +36°C° 0 mm 2 mps 730 mmHg 25%
    18:00 +35°C° 0 mm 3 mps 729 mmHg 27%
    19:00 +32°C° 0 mm 2 mps 730 mmHg 32%
    20:00 +30°C° 0 mm 2 mps 730 mmHg 37%
    21:00 +28°C° 0 mm 2 mps 730 mmHg 42%
    22:00 +28°C° 0 mm 2 mps 730 mmHg 45%
    23:00 +27°C° 0 mm 2 mps 730 mmHg 47%

    24 August, Friday

    Time Temperature Precipitation Wind Pressure Humidity
    00:00 +26°C° 0 mm 2 mps 730 mmHg 49%
    01:00 +26°C° 0 mm 1 mps 730 mmHg 50%
    02:00 +25°C° 0 mm 1 mps 730 mmHg 51%
    03:00 +25°C° 0 mm 1 mps 730 mmHg 51%
    04:00 +24°C° 0 mm 1 mps 730 mmHg 52%
    05:00 +24°C° 0 mm 1 mps 730 mmHg 53%
    06:00 +23°C° 0 mm 1 mps 730 mmHg 54%
    07:00 +26°C° 0 mm 1 mps 730 mmHg 48%
    08:00 +28°C° 0 mm 2 mps 730 mmHg 42%
    09:00 +30°C° 0 mm 2 mps 730 mmHg 36%
    10:00 +32°C° 0 mm 2 mps 730 mmHg 31%
    11:00 +35°C° 0 mm 2 mps 730 mmHg 26%
    12:00 +37°C° 0 mm 3 mps 730 mmHg 21%
    13:00 +37°C° 0 mm 3 mps 730 mmHg 20%
    14:00 +37°C° 0 mm 4 mps 729 mmHg 19%
    15:00 +38°C° 0 mm 4 mps 729 mmHg 19%
    16:00 +36°C° 0 mm 4 mps 729 mmHg 22%
    17:00 +35°C° 0 mm 4 mps 728 mmHg 26%
    18:00 +34°C° 0 mm 4 mps 728 mmHg 29%
    19:00 +30°C° 0 mm 4 mps 728 mmHg 35%
    20:00 +28°C° 0 mm 3 mps 729 mmHg 40%
    21:00 +26°C° 0 mm 3 mps 729 mmHg 45%
    22:00 +25°C° 0 mm 3 mps 729 mmHg 48%
    23:00 +24°C° 0 mm 3 mps 729 mmHg 50%
    Show more